Location: Sweet Grass
(48.9965°N, 111.9649°W)
Time: 11:59:51
(UTC+00:00)

DIWATA 2B (PO-101) - Visible Passes

Search period start: 02 April 2023 00:00
Search period end: 12 April 2023 00:00
Orbit: 581 x 595 km, 98.0° (Epoch: 02 April)

Date Brightness Start Highest point End Pass type
(mag) Time Alt. Az. Time Alt. Az. Time Alt. Az.
02 Apr ? 08:19:51 13° NE 08:19:51 13° NE 08:21:18 10° NNE visible
02 Apr ? 09:56:21 27° NNW 09:56:21 27° NNW 09:58:19 10° NNW visible
03 Apr ? 08:27:13 15° NE 08:27:13 15° NE 08:29:05 10° NNE visible
03 Apr ? 10:03:42 28° NNW 10:03:42 28° NNW 10:05:45 10° NNW visible
04 Apr ? 08:34:34 17° NE 08:34:34 17° NE 08:36:47 10° NNE visible
04 Apr ? 10:11:04 28° NW 10:11:04 28° NW 10:13:09 10° NNW visible
05 Apr ? 08:41:55 20° NE 08:41:55 20° NE 08:44:25 10° NNE visible
05 Apr ? 10:18:25 27° NW 10:18:25 27° NW 10:20:32 10° NNW visible
06 Apr ? 08:49:16 23° NE 08:49:16 23° NE 08:52:02 10° N visible
06 Apr ? 10:25:45 26° NW 10:25:45 26° NW 10:27:53 10° NNW visible
07 Apr ? 08:56:36 26° NE 08:56:36 26° NE 08:59:35 10° N visible
07 Apr ? 10:33:06 24° NW 10:33:06 24° NW 10:35:13 10° NNW visible
08 Apr ? 09:03:57 30° NE 09:03:57 30° NE 09:07:07 10° N visible
08 Apr ? 10:40:26 22° WNW 10:40:26 22° WNW 10:42:30 10° NW visible
09 Apr ? 09:11:16 35° NE 09:11:16 35° NE 09:14:38 10° N visible
09 Apr ? 10:47:46 20° WNW 10:47:46 20° WNW 10:49:45 10° NW visible
10 Apr ? 09:18:36 42° NE 09:18:36 42° NE 09:22:07 10° N visible
10 Apr ? 10:55:05 18° WNW 10:55:05 18° WNW 10:56:58 10° NW visible
11 Apr ? 09:25:55 49° NE 09:25:55 49° NE 09:29:35 10° N visible
11 Apr ? 11:02:24 16° WNW 11:02:24 16° WNW 11:04:07 10° NW visible
